Volver al catálogo

STARLINK-37792

ActivoComunicacionesSSO
NORAD 69437·PAYLOAD·🇺🇸 United States

Lanzado Jun 7, 2026 desde Vandenberg Space Force Base

Loading…

Próximos Pases (próximas 24 horas)

TLE

ActualizadoSource: CelesTrak SupGP

Época: Sep 15, 2026, 03:15 UTC

1 69437C 26126T   26258.13590278 -.00000370  00000+0 -11486-4 0  2587
2 69437  97.2851 119.3829 0002173  95.4962  65.5236 15.33449934    17

Sigue STARLINK-37792 en tiempo real con AllMySat

Download on the App Store